www.pogodaiklimat.ru

Погода и климат >> Архив погоды >> Туркменистан >> Шах-Сенем


ПОГОДА в Шах-Сенеме

  • Прогноз погоды в Шах-Сенеме
  • Монитор погоды в Шах-Сенеме

АРХИВ ПОГОДЫ в Шах-Сенеме

Время (UTC), дата Ветер
(напр.,м/с)
 
Видим.   Явления Облачность Т
(С)
Тd
(С)
f
(%)
Тe
(С)
Тes
(С)
Комфортность P
(гПа)
Po
(гПа)
Тmin
(С)
Tmax
(С)
R
(мм)
R24
(мм)
S
(см)
03 9.06 СВ 3 10 км 8/0
[Ac trans]
+21.0 +7.1 41 +23 +24 комфорт 1016.0 1007.9 +16.4
09 9.06 С 4 10 км 8/0
[Ac trans]
+26.8 +8.9 32 +27 +34 жарко 1016.5 1008.7
12 9.06 С 1 10 км 4/0
[Ci fib]
+28.4 +9.2 30 +28 +38 жарко 1015.9 1008.1
15 9.06 С 2 10 км 3/0
[Ci fib]
+26.6 +8.6 32 +27 +27 жарко 1016.1 1008.3 +28.9
18 9.06 н/о н/о
21 9.06 С 2 10 км ясно +17.0 +6.4 50 +17 +17 1017.5 1009.4
00 10.06 С 1 10 км ясно +15.2 +6.1 55 +16 +16 1017.9 1009.7
03 10.06 СВ 2 10 км ясно +21.8 +7.6 40 +23 +27 комфорт 1019.1 1011.2 +14.8
06 10.06 СВ 3 10 км ясно +27.6 +8.6 30 +27 +41 жарко 1019.5 1011.7 +14.8
09 10.06 С 4 10 км 4/4 1000 м
[Cu hum]
+30.8 +9.0 26 +30 +38 жарко 1019.3 1011.5
12 10.06 С 2 10 км ясно +29.6 +8.9 27 +29 +38 жарко 1019.0 1011.2
15 10.06 СВ 3 10 км ясно +28.1 +8.4 29 +28 +28 жарко 1019.0 1011.2 +31.2
18 10.06 С 1 10 км ясно +21.3 +7.4 41 +22 +22 комфорт 1020.2 1012.1 +31.2
21 10.06 н/о
00 11.06 С 1 10 км ясно +17.2 +6.2 48 +18 +18 1019.3 1011.2
03 11.06 СВ 1 10 км ясно +22.2 +7.7 39 +23 +28 комфорт 1019.1 1011.2 +16.8
06 11.06 С 2 10 км ясно +30.0 +9.0 27 +29 +46 жарко 1018.9 1011.1 +16.8
09 11.06 В 3 10 км ясно +31.4 +9.3 25 +31 +47 жарко 1018.1 1010.4
12 11.06 В 2 10 км ясно +32.5 +9.5 24 +32 +40 жарко 1016.7 1009.0
15 11.06 СВ 2 10 км ясно +30.3 +9.3 27 +30 +30 жарко 1016.0 1008.2 +33.0
18 11.06 СВ 1 н/о н/о +22.5 +5.3 33 +23 +23 комфорт 1016.4 1008.5 +33.0
21 11.06 В 2 10 км ясно +20.2 +5.1 37 +21 +21 комфорт 1015.5 1007.4
00 12.06 штиль 0 10 км ясно +18.4 +5.0 41 +19 +19 1014.9 1006.8
03 12.06 штиль 0 10 км ясно +24.3 +8.5 37 +25 +30 комфорт 1014.9 1007.0 +18.0
06 12.06 СВ 2 10 км ясно +32.8 +9.5 24 +32 +48 жарко 1014.2 1006.5 +18.0
09 12.06 СВ 2 10 км ясно +33.8 +9.9 23 +33 +52 опасность
солнечного
удара
1013.1 1005.4
12 12.06 В 3 10 км ясно +34.7 +10.0 22 +34 +41 очень
жарко
1011.3 1003.7
15 12.06 С 2 10 км ясно +31.8 +9.7 26 +31 +31 жарко 1010.6 1003.0 +35.2
18 12.06 С 1 10 км ясно +24.0 +6.4 32 +24 +24 комфорт 1011.1 1003.2 +35.2
21 12.06 С 1 10 км ясно +21.0 +5.3 36 +23 +23 комфорт 1010.6 1002.6
00 13.06 С 1 10 км ясно +18.2 +5.0 42 +19 +19 1010.2 1002.2
03 13.06 В 1 10 км ясно +26.0 +9.3 35 +26 +31 жарко 1010.0 1002.1 +17.8
06 13.06 В 1 10 км 3/0
[Ci fib]
+33.4 +10.0 24 +33 +50 жарко 1009.5 1001.9 +17.8
09 13.06 В 1 10 км 3/0
[Ci fib]
+35.6 +10.3 22 +35 +56 опасность
солнечного
удара
1008.7 1001.1
12 13.06 В 1 10 км 6/0
[Ci ing]
+35.9 +10.5 21 +35 +44 очень
жарко
1007.0 999.4
15 13.06 СВ 2 10 км 8/0
[Ac trans]
+32.8 +9.2 23 +32 +32 жарко 1006.7 999.1 +36.4
18 13.06 С 1 10 км 8/0
[Ac trans]
+26.2 +8.0 32 +26 +26 жарко 1007.0 999.1 +36.4
21 13.06 10 км н/о +25.2 +7.7 33 +25 +25 комфорт 1006.4 998.5
00 14.06 С 1 10 км 8/8 600 м
[Cb calv]
+23.6 +7.1 35 +24 +24 комфорт 1005.9 998.0
03 14.06 штиль 0 10 км 4/0
[Ac trans]
+26.6 +8.1 31 +27 +31 жарко 1006.1 998.4 +23.2
06 14.06 З 1 10 км ясно +35.7 +8.8 19 +34 +53 опасность
солнечного
удара
1006.0 998.4 +23.2
09 14.06 З 1 10 км 4/4 1000 м
[Cu hum]
+37.8 +8.9 17 +36 +50 очень
жарко
1005.5 998.0
12 14.06 З 3 10 км 8/8 1000 м
[Cu med, cong]
+36.5 +8.2 18 +35 +36 очень
жарко
1004.6 997.1
15 14.06 С 2 10 км 6/6 600 м
[Sc]
+32.2 +6.2 20 +30 +30 жарко 1004.6 997.0 +38.3
18 14.06 З 1 10 км 4/4 600 м
[Sc]
+27.2 +5.3 25 +26 +26 жарко 1006.3 998.6 +38.3
21 14.06 С 3 10 км 3/0
[Ac trans]
+25.8 +5.0 26 +25 +25 комфорт 1007.3 999.4
00 15.06 С 2 10 км ясно +19.2 +4.1 37 +20 +20 1008.4 1000.4
03 15.06 С 2 10 км ясно +21.1 +4.5 34 +21 +26 комфорт 1009.5 1001.5 +18.8

 

Местоположение метеостанции Шах-Сенем (Дашогузский велаят, Туркменистан): широта 41.58 долгота 58.72 высота над уровнем моря 62 м.

В архиве по умолчанию представлена погода в Шах-Сенеме за последнюю неделю. Архивные данные за месяц целиком и за предыдущие месяцы, начиная с января 2011 года, Вы можете получить, выбрав интересующий диапазон дат из раскрывающегося списка и нажав кнопку "Ввод!".


*Определитесь, кто Вы:
робот инопланетянин человек

Внимание! Время в таблицах - всемирное. Для получения местного времени необходимо прибавить поправку, которая равна 5 ч.

Смотрите также архив погоды в соседних городах и на ближайших метеорологических станциях:

Погода в Кенеургенче (Дашогузский велаят, Туркменистан) (87 км)
Погода в Дашогузе (Дашогузский велаят, Туркменистан) (93 км)
Погода в Екеже (Дашогузский велаят, Туркменистан) (100 км)
Погода в Тахиаташе (Каракалпакстан, Узбекистан) (117 км)
Погода в Нукусе (Каракалпакстан, Узбекистан) (122 км)
Погода в Тахтакупыре (Каракалпакстан, Узбекистан) (125 км)
Погода в Хиве (Хорезмская область, Узбекистан) (140 км)
Погода в Гурлене (Хорезмская область, Узбекистан) (142 км)
Погода в Ургенче (Хорезмская область, Узбекистан) (154 км)
Погода в Дервезе (Дашогузский велаят, Туркменистан) (157 км)

Пояснения к столбцам:

Ветер - указаны скорость ветра в м/с - средняя за 10 мин, порывы в срок и между сроками (в фигурных скобках) и направление, откуда дует ветер: С - северный, СВ - северо-восточный, В - восточный, ЮВ - юго-восточный, Ю - южный, ЮЗ - юго-западный, З - западный, СЗ - северо-западный.
Видимость - горизонтальная дальность видимости в метрах или километрах. При видимости от 1 до 10 км при отсутствии осадков обычно наблюдается дымка, при ухудшении видимости до 1 км и менее - туман. В сухую погоду видимость может ухудшаться дымом, пылью или мглою.
Явления - указаны атмосферные явления, наблюдавшиеся в срок или в последний час перед сроком; фигурными скобками обозначены явления, наблюдавшиеся между сроками (за 1-3 часа до срока); квадратными скобками обозначены град или гололедные отложения с указанием их диаметра в мм.
Облачность - указаны через наклонную черту общая и нижняя облачность в баллах и высота нижней границы облаков в метрах; квадратными скобками обозначены формы облаков: Ci - перистые, Cs - перисто-слоистые, Cc - перисто-кучевые, Ac - высококучевые, As - высокослоистые, Sc - слоисто-кучевые, Ns - слоисто-дождевые, Cu - кучевые, Cb - кучево-дождевые. Подробнее классификацию облаков см. в Атласе облаков (PDF).
T - Температура воздуха - температура, измеренная на высоте 2 м над землей.
Td - Температура точки росы - температура, при понижении до которой содержащийся в воздухе водяной пар достигнет насыщения.
f - Относительная влажность воздуха - влажноcть воздуха, измеренная на высоте 2 м над землей.
Te - Эффективная температура - температура, которую ощущает одетый по сезону человек в тени. Характеристика душности погоды. При расчете учитывается влияние влажности воздуха и скорости ветра на теплоощущения человека.
Tes - Эффективная температура на солнце - температура, которую ощущает человек, с поправкой на солнечный нагрев. Характеристика знойности погоды. Зависит от высоты солнца над горизонтом, облачности и скорости ветра. Ночью, в пасмурную погоду, а также при ветре 12 м/с и более поправка равна нулю.
P - Атмосферное давление - приведенное к уровню моря атмосферное давление.
Po - Атмосферное давление - измеренное на уровне метеостанции атмосферное давление.
Tmin - Минимальная температура - минимум температуры воздуха на высоте 2 м над землей.
Tmax - Максимальная температура - максимум температуры воздуха на высоте 2 м над землей.
R - Количество осадков - Количество выпавших осадков за период времени, мм. При наведении курсора мыши на число - период времени, за который выпало указанное количество осадков.
R24 - Количество осадков - Количество выпавших осадков за 24 часа, мм.
S - Снежный покров - Высота снежного покрова, см. При наведении курсора мыши на число - состояние снежного покрова и степень покрытия местности в баллах.